Regional Weather Roundup
Issued by NWS

Home | Current Version | Previous Version | Text Only | Print | Product List | Glossary On
Versions: 1 2 3 4 5 6 7 8 9 10 11 12 13 14 15 16 17 18 19 20 21 22 23 24 25 26 27 28 29 30 31 32 33 34 35 36 37 38 39 40 41 42 43 44 45 46 47 48 49 50
547
ASUS44 KMEG 310110
RWRTN
TENNESSEE HOURLY STATE WEATHER ROUNDUP
NATIONAL WEATHER SERVICE MEMPHIS TN
800 PM CDT SAT JUL 30 2016

TNZ002-004-019-021-049-052-054-088>092-310200-
WEST TENNESSEE

CITY           SKY/WX    TMP DP  RH WIND       PRES   REMARKS
MEMPHIS INTL   CLOUDY    84  73  69 CALM      29.95F HX  90
NWS MEMPHIS      N/A     80 N/A N/A MISG        N/A
JACKSON        MOCLDY    80  76  87 CALM      29.97R
DYERSBURG      CLOUDY   N/A N/A N/A MISG        N/A
UNION CITY     CLEAR     81  75  83 CALM      29.95S
PARIS          CLEAR     75  73  94 CALM      29.98R
LEXINGTON      CLEAR     81  73  78 CALM      29.97S
$$

TNZ008-025-027-028-033-062-065-066-310200-
NORTH MIDDLE TENNESSEE

CITY           SKY/WX    TMP DP  RH WIND       PRES   REMARKS
NASHVILLE      MOCLDY    84  69  60 W3        29.98R
CLARKSVILLE    CLEAR     81  71  71 W3        29.97R
SMYRNA         CLEAR     83  72  69 S3        29.98R
COOKEVILLE     CLEAR     81  75  83 CALM      30.00R
CROSSVILLE     CLEAR     76  70  82 CALM      30.06R
$$

TNZ061-075-076-078-094-096-097-310200-
SOUTH MIDDLE TENNESSEE

CITY           SKY/WX    TMP DP  RH WIND       PRES   REMARKS
FAYETTEVILLE   CLEAR     77  73  88 S6        30.01R
TULLAHOMA        N/A     79  72  78 CALM      30.03R
WINCHESTER     CLEAR     79  73  83 SW3       30.02R
MCMINNVILLE    CLEAR     81  75  83 CALM      30.01R
COLUMBIA       CLEAR     82  73  74 CALM      29.98R
SHELBYVILLE    MOCLDY    84  75  74 CALM      30.00R HX  92
$$

TNZ017-018-042-046-047-310200-
NORTHEAST TENNESSEE

CITY           SKY/WX    TMP DP  RH WIND       PRES   REMARKS
TRI CITIES     PTCLDY    78  69  73 CALM      30.02R
ELIZABETHTON   CLEAR     75  70  83 CALM      30.02S
$$

TNZ012-013-036-069-073-074-310200-
CENTRAL EAST TENNESSEE

CITY           SKY/WX    TMP DP  RH WIND       PRES   REMARKS
KNOXVILLE      MOCLDY    83  71  67 SW5       29.99R
OAK RIDGE      PTCLDY    83  69  62 W3        30.01R
GATLINBURG     CLEAR     84  66  54 CALM      29.99R
MORRISTOWN     MOCLDY    77  73  88 CALM      30.01R
$$

TNZ083-085-099-310200-
SOUTHEAST TENNESSEE

CITY           SKY/WX    TMP DP  RH WIND       PRES   REMARKS
CHATTANOOGA    MOCLDY    83  70  64 W3        30.01R
$$

SKY/WX REPORTED AS FAIR MEANS FEW OR NO CLOUDS BELOW
12 THOUSAND FEET.





USA.gov is the U.S. government's official web portal to all federal, state and local government web resources and services.